Simultaneous Nadir Overpasses (SNOs) Predictions

Prediction of SNOs between FY3D and NPP Satellite Orbit:

Table of predicted SNOs for the next 14.0 days since TLE Epoch: 3/5/2022
Index Date (FY3D) Time (FY3D) Lat,Lon (FY3D) SZA (FY3D ) Date (NPP) Time (NPP) Lat,Lon (NPP) SZA (NPP ) Distance(km) Time Diff (sec)
1 03/10/2022 22:46:41 81.23, 137.68 89.82 03/10/2022 22:47:56 81.23, 137.57 89.80 1.88 75
2 03/10/2022 23:37:26 -81.23, -54.95 90.20 03/10/2022 23:38:41 -81.23, -55.11 90.22 2.72 75
3 03/11/2022 00:28:13 81.23, 112.09 89.83 03/11/2022 00:29:26 81.23, 112.16 89.77 1.24 73
4 03/11/2022 01:18:58 -81.23, -80.55 90.20 03/11/2022 01:20:11 -81.23, -80.52 90.25 0.42 73
5 03/11/2022 02:09:44 81.23, 86.88 89.77 03/11/2022 02:10:56 81.23, 86.75 89.75 2.33 72
6 03/11/2022 03:00:29 -81.23,-105.75 90.25 03/11/2022 03:01:41 -81.23,-105.94 90.27 3.17 72
7 03/11/2022 03:51:15 81.23, 61.68 89.72 03/11/2022 03:52:25 81.23, 61.72 89.67 0.79 70
8 03/11/2022 04:42:00 -81.23,-130.95 90.31 03/11/2022 04:43:10 -81.23,-130.96 90.35 0.29 70
9 03/11/2022 05:32:47 81.23, 36.09 89.72 03/11/2022 05:33:56 81.24, 35.92 89.71 2.79 69
10 03/11/2022 06:23:32 -81.23,-156.55 90.31 03/11/2022 06:24:40 -81.23,-156.37 90.37 2.97 68
11 03/11/2022 07:14:18 81.23, 10.88 89.67 03/11/2022 07:15:25 81.23, 10.90 89.63 0.33 67
12 03/11/2022 08:05:03 -81.23, 178.25 90.36 03/11/2022 08:06:10 -81.23, 178.22 90.39 0.57 67
13 03/11/2022 08:55:49 81.23, -14.32 89.62 03/11/2022 08:56:55 81.23, -14.51 89.61 3.23 66
14 03/11/2022 09:46:35 -81.23, 152.66 90.36 03/11/2022 09:47:40 -81.23, 152.81 90.42 2.52 65
15 03/11/2022 10:37:21 81.23, -39.92 89.62 03/11/2022 10:38:25 81.23, -39.92 89.58 0.14 64
16 03/11/2022 11:28:06 -81.23, 127.45 90.41 03/11/2022 11:29:10 -81.23, 127.39 90.44 1.00 64
17 03/11/2022 12:18:53 81.23, -65.51 89.62 03/11/2022 12:19:55 81.23, -65.33 89.56 2.95 62
18 03/11/2022 13:09:38 -81.23, 101.86 90.41 03/11/2022 13:10:40 -81.23, 101.98 90.46 2.07 62
19 03/11/2022 14:00:24 81.23, -90.71 89.57 03/11/2022 14:01:25 81.23, -90.75 89.54 0.59 61
20 03/11/2022 14:51:09 -81.23, 76.66 90.46 03/11/2022 14:52:10 -81.23, 76.57 90.48 1.45 61
21 03/11/2022 15:41:56 81.23,-116.31 89.57 03/11/2022 15:42:55 81.23,-116.16 89.51 2.51 59
22 03/11/2022 16:32:41 -81.23, 51.06 90.46 03/11/2022 16:33:40 -81.23, 51.16 90.51 1.64 59
23 03/11/2022 17:23:27 81.23,-141.51 89.52 03/11/2022 17:24:25 81.23,-141.57 89.49 1.05 58
24 03/11/2022 18:14:12 -81.23, 25.86 90.51 03/11/2022 18:15:10 -81.23, 25.75 90.53 1.90 58
25 03/11/2022 19:04:58 81.23,-166.71 89.46 03/11/2022 19:05:54 81.23,-166.60 89.41 2.06 56
26 03/11/2022 19:55:43 -81.23, 0.66 90.56 03/11/2022 19:56:39 -81.22, 0.72 90.61 1.20 56
27 03/11/2022 20:46:30 81.23, 167.69 89.46 03/11/2022 20:47:25 81.23, 167.61 89.45 1.51 55
28 03/11/2022 21:37:15 -81.23, -24.94 90.56 03/11/2022 21:38:10 -81.23, -25.07 90.57 2.36 55
29 03/11/2022 22:28:01 81.23, 142.49 89.41 03/11/2022 22:28:54 81.23, 142.58 89.37 1.60 53
30 03/11/2022 23:18:46 -81.23, -50.14 90.62 03/11/2022 23:19:39 -81.23, -50.10 90.65 0.74 53
31 03/12/2022 00:09:32 81.23, 117.28 89.36 03/12/2022 00:10:24 81.23, 117.17 89.34 1.94 52
32 03/12/2022 01:00:17 -81.23, -75.34 90.67 03/12/2022 01:01:09 -81.23, -75.51 90.68 2.81 52
33 03/12/2022 01:51:04 81.23, 91.69 89.36 03/12/2022 01:51:54 81.23, 91.76 89.32 1.15 50
34 03/12/2022 02:41:49 -81.23,-100.94 90.67 03/12/2022 02:42:39 -81.23,-100.92 90.70 0.27 50
35 03/12/2022 03:32:35 81.23, 66.49 89.31 03/12/2022 03:33:24 81.23, 66.35 89.30 2.38 49
36 03/12/2022 04:23:20 -81.23,-126.14 90.72 03/12/2022 04:24:09 -81.23,-126.33 90.72 3.25 49
37 03/12/2022 05:14:07 81.23, 40.89 89.31 03/12/2022 05:14:54 81.23, 40.93 89.28 0.71 47
38 03/12/2022 06:04:52 -81.23,-151.73 90.72 03/12/2022 06:05:39 -81.23,-151.74 90.74 0.19 47
39 03/12/2022 06:55:38 81.23, 15.69 89.26 03/12/2022 06:56:24 81.23, 15.52 89.25 2.83 46
40 03/12/2022 07:46:24 -81.23,-177.33 90.72 03/12/2022 07:47:09 -81.23,-177.15 90.77 2.89 45
41 03/12/2022 08:37:10 81.23, -9.90 89.26 03/12/2022 08:37:54 81.23, -9.89 89.23 0.33 44
42 03/12/2022 09:27:55 -81.23, 157.47 90.77 03/12/2022 09:28:39 -81.23, 157.43 90.79 0.66 44
43 03/12/2022 10:18:41 81.23, -35.11 89.21 03/12/2022 10:19:24 81.23, -35.30 89.21 3.29 43
44 03/12/2022 11:09:26 -81.23, 132.27 90.82 03/12/2022 11:10:08 -81.22, 132.41 90.87 2.44 42
45 03/12/2022 12:00:12 81.23, -60.31 89.15 03/12/2022 12:00:53 81.22, -60.33 89.13 0.35 41
46 03/12/2022 12:50:58 -81.23, 106.67 90.82 03/12/2022 12:51:39 -81.23, 106.61 90.84 1.12 41
47 03/12/2022 13:41:44 81.23, -85.91 89.15 03/12/2022 13:42:23 81.23, -85.74 89.11 2.88 39
48 03/12/2022 14:32:29 -81.23, 81.47 90.87 03/12/2022 14:33:08 -81.23, 81.58 90.91 1.98 39
49 03/12/2022 15:23:15 81.23,-111.11 89.10 03/12/2022 15:23:53 81.23,-111.15 89.08 0.68 38
50 03/12/2022 16:14:00 -81.23, 56.27 90.93 03/12/2022 16:14:38 -81.23, 56.17 90.94 1.56 38
51 03/12/2022 17:04:47 81.23,-136.70 89.10 03/12/2022 17:05:23 81.23,-136.56 89.06 2.43 36
52 03/12/2022 17:55:32 -81.23, 30.67 90.93 03/12/2022 17:56:08 -81.23, 30.76 90.96 1.52 36
53 03/12/2022 18:46:18 81.23,-161.91 89.05 03/12/2022 18:46:53 81.23,-161.97 89.04 1.11 35
54 03/12/2022 19:37:02 -81.23, 5.47 90.98 03/12/2022 19:37:37 -81.23, 5.35 90.98 2.00 35
55 03/12/2022 20:27:49 81.23, 172.50 89.05 03/12/2022 20:28:22 81.23, 172.61 89.02 1.98 33
56 03/12/2022 21:18:34 -81.23, -20.12 90.98 03/12/2022 21:19:07 -81.23, -20.06 91.01 1.07 33
57 03/12/2022 22:09:20 81.23, 147.29 89.00 03/12/2022 22:09:52 81.23, 147.20 88.99 1.56 32
58 03/12/2022 23:00:05 -81.23, -45.33 91.03 03/12/2022 23:00:37 -81.23, -45.47 91.03 2.45 32
59 03/12/2022 23:50:52 81.23, 121.70 89.00 03/12/2022 23:51:22 81.23, 121.79 88.97 1.54 30
60 03/13/2022 00:41:37 -81.23, -70.92 91.03 03/13/2022 00:42:07 -81.23, -70.88 91.05 0.64 30
61 03/13/2022 01:32:23 81.23, 96.49 88.95 03/13/2022 01:32:52 81.23, 96.38 88.95 2.02 29
62 03/13/2022 02:23:08 -81.23, -96.12 91.08 03/13/2022 02:23:37 -81.23, -96.30 91.07 2.91 29
63 03/13/2022 03:13:54 81.23, 71.29 88.89 03/13/2022 03:14:21 81.22, 71.35 88.87 1.10 27
64 03/13/2022 04:04:40 -81.23,-121.72 91.08 03/13/2022 04:05:07 -81.23,-121.71 91.10 0.32 27
65 03/13/2022 04:55:26 81.23, 45.70 88.90 03/13/2022 04:55:52 81.23, 45.55 88.90 2.48 26
66 03/13/2022 05:46:11 -81.23,-146.92 91.13 03/13/2022 05:46:36 -81.22,-146.73 91.17 3.22 25
67 03/13/2022 06:36:57 81.23, 20.49 88.84 03/13/2022 06:37:21 81.23, 20.53 88.82 0.63 24
68 03/13/2022 07:27:42 -81.23,-172.13 91.19 03/13/2022 07:28:06 -81.23,-172.15 91.20 0.36 24
69 03/13/2022 08:18:28 81.23, -4.71 88.79 03/13/2022 08:18:51 81.23, -4.88 88.80 2.93 23
70 03/13/2022 09:09:14 -81.23, 162.28 91.18 03/13/2022 09:09:36 -81.23, 162.44 91.22 2.76 22
71 03/13/2022 10:00:00 81.23, -30.31 88.79 03/13/2022 10:00:21 81.23, -30.30 88.78 0.17 21
72 03/13/2022 10:50:45 -81.23, 137.08 91.24 03/13/2022 10:51:06 -81.23, 137.03 91.24 0.76 21
73 03/13/2022 11:41:32 81.23, -55.90 88.79 03/13/2022 11:41:51 81.23, -55.71 88.76 3.24 19
74 03/13/2022 12:32:17 -81.23, 111.48 91.24 03/13/2022 12:32:36 -81.23, 111.62 91.27 2.31 19
75 03/13/2022 13:23:03 81.23, -81.10 88.74 03/13/2022 13:23:21 81.23, -81.12 88.73 0.30 18
76 03/13/2022 14:13:48 -81.23, 86.28 91.29 03/13/2022 14:14:06 -81.23, 86.21 91.29 1.21 18
77 03/13/2022 15:04:35 81.23,-106.70 88.74 03/13/2022 15:04:51 81.23,-106.53 88.71 2.80 16
78 03/13/2022 15:55:20 -81.23, 60.69 91.29 03/13/2022 15:55:36 -81.23, 60.80 91.31 1.86 16
79 03/13/2022 16:46:06 81.23,-131.90 88.69 03/13/2022 16:46:21 81.23,-131.95 88.69 0.77 15
80 03/13/2022 17:36:51 -81.23, 35.48 91.34 03/13/2022 17:37:06 -81.23, 35.39 91.33 1.68 15
81 03/13/2022 18:27:37 81.23,-157.11 88.64 03/13/2022 18:27:50 81.22,-156.97 88.61 2.34 13
82 03/13/2022 19:18:22 -81.23, 10.28 91.39 03/13/2022 19:18:35 -81.22, 10.36 91.41 1.42 13
83 03/13/2022 20:09:09 81.23, 177.30 88.64 03/13/2022 20:09:21 81.23, 177.23 88.64 1.24 12
84 03/13/2022 20:59:54 -81.23, -15.31 91.39 03/13/2022 21:00:06 -81.23, -15.44 91.38 2.14 12
85 03/13/2022 21:50:40 81.23, 152.09 88.59 03/13/2022 21:50:50 81.22, 152.20 88.56 1.88 10
86 03/13/2022 22:41:25 -81.23, -40.52 91.44 03/13/2022 22:41:35 -81.22, -40.47 91.46 0.95 10
87 03/13/2022 23:32:11 81.23, 126.89 88.53 03/13/2022 23:32:20 81.23, 126.79 88.54 1.67 9
88 03/14/2022 00:22:56 -81.22, -65.72 91.50 03/14/2022 00:23:05 -81.22, -65.88 91.48 2.61 9
89 03/14/2022 01:13:43 81.23, 101.30 88.53 03/14/2022 01:13:50 81.23, 101.38 88.52 1.42 7
90 03/14/2022 02:04:28 -81.23, -91.32 91.50 03/14/2022 02:04:35 -81.23, -91.29 91.50 0.48 7
91 03/14/2022 02:55:14 81.23, 76.09 88.48 03/14/2022 02:55:20 81.23, 75.97 88.50 2.12 6
92 03/14/2022 03:45:59 -81.23,-116.52 91.55 03/14/2022 03:46:05 -81.23,-116.70 91.53 3.06 6
93 03/14/2022 04:36:46 81.23, 50.50 88.48 03/14/2022 04:36:50 81.23, 50.55 88.47 0.97 4
94 03/14/2022 05:27:31 -81.23,-142.11 91.55 03/14/2022 05:27:35 -81.23,-142.11 91.55 0.03 4
95 03/14/2022 06:18:17 81.23, 25.29 88.43 03/14/2022 06:18:20 81.23, 25.14 88.45 2.57 3
96 03/14/2022 07:09:03 -81.23,-167.71 91.55 03/14/2022 07:09:05 -81.23,-167.52 91.57 3.08 2
97 03/14/2022 07:59:49 81.23, -0.30 88.43 03/14/2022 07:59:50 81.23, -0.27 88.43 0.55 1
98 03/14/2022 08:50:34 -81.23, 167.09 91.60 03/14/2022 08:50:35 -81.23, 167.06 91.60 0.47 1
99 03/14/2022 09:41:20 81.23, -25.51 88.38 03/14/2022 09:41:20 81.23, -25.68 88.40 3.03 0
100 03/14/2022 10:32:05 -81.23, 141.88 91.65 03/14/2022 10:32:04 -81.22, 142.04 91.67 2.62 1
101 03/14/2022 11:22:51 81.23, -50.71 88.33 03/14/2022 11:22:49 81.22, -50.71 88.33 0.28 2
102 03/14/2022 12:13:37 -81.23, 116.29 91.65 03/14/2022 12:13:35 -81.23, 116.24 91.64 0.95 2
103 03/14/2022 13:04:23 81.23, -76.30 88.33 03/14/2022 13:04:19 81.22, -76.12 88.30 3.13 4
104 03/14/2022 13:55:08 -81.23, 91.09 91.70 03/14/2022 13:55:04 -81.22, 91.21 91.72 2.15 4
105 03/14/2022 14:45:54 81.23,-101.51 88.27 03/14/2022 14:45:49 81.22,-101.53 88.28 0.44 5
106 03/14/2022 15:36:39 -81.22, 65.88 91.76 03/14/2022 15:36:34 -81.22, 65.80 91.74 1.40 5
107 03/14/2022 16:27:26 81.23,-127.10 88.28 03/14/2022 16:27:19 81.23,-126.95 88.26 2.67 7
108 03/14/2022 17:18:11 -81.23, 40.29 91.75 03/14/2022 17:18:04 -81.22, 40.39 91.76 1.68 7
109 03/14/2022 18:08:57 81.23,-152.31 88.22 03/14/2022 18:08:49 81.23,-152.36 88.24 0.87 8
110 03/14/2022 18:59:42 -81.22, 15.09 91.81 03/14/2022 18:59:34 -81.23, 14.98 91.79 1.85 8
111 03/14/2022 19:50:29 81.23,-177.90 88.22 03/14/2022 19:50:19 81.23,-177.77 88.21 2.22 10
112 03/14/2022 20:41:14 -81.23, -10.51 91.81 03/14/2022 20:41:04 -81.23, -10.44 91.81 1.22 10
113 03/14/2022 21:32:00 81.23, 156.89 88.17 03/14/2022 21:31:49 81.23, 156.82 88.19 1.32 11
114 03/14/2022 22:22:45 -81.23, -35.71 91.86 03/14/2022 22:22:34 -81.23, -35.85 91.83 2.31 11
115 03/14/2022 23:13:31 81.23, 131.30 88.17 03/14/2022 23:13:18 81.23, 131.40 88.17 1.77 13
116 03/15/2022 00:04:16 -81.23, -61.30 91.86 03/15/2022 00:04:03 -81.23, -61.26 91.86 0.77 13
117 03/15/2022 00:55:02 81.23, 106.09 88.12 03/15/2022 00:54:48 81.23, 105.99 88.14 1.79 14
118 03/15/2022 01:45:47 -81.23, -86.51 91.91 03/15/2022 01:45:33 -81.23, -86.67 91.88 2.77 14
119 03/15/2022 02:36:33 81.22, 80.89 88.07 03/15/2022 02:36:17 81.22, 80.96 88.07 1.32 16
120 03/15/2022 03:27:19 -81.23,-112.10 91.91 03/15/2022 03:27:03 -81.23,-112.08 91.90 0.40 16
121 03/15/2022 04:18:05 81.23, 55.30 88.07 03/15/2022 04:17:48 81.23, 55.17 88.10 2.25 17
122 03/15/2022 05:08:50 -81.23,-137.31 91.96 03/15/2022 05:08:33 -81.23,-137.50 91.92 3.24 17
123 03/15/2022 05:59:36 81.23, 30.09 88.02 03/15/2022 05:59:17 81.22, 30.14 88.02 0.85 19
124 03/15/2022 06:50:21 -81.22,-162.51 92.01 03/15/2022 06:50:02 -81.22,-162.52 92.00 0.27 19
125 03/15/2022 07:41:07 81.22, 4.89 87.96 03/15/2022 07:40:47 81.22, 4.73 88.00 2.71 20
126 03/15/2022 08:31:53 -81.23, 171.90 92.01 03/15/2022 08:31:32 -81.22, 172.06 92.03 2.88 21
127 03/15/2022 09:22:39 81.23, -20.71 87.97 03/15/2022 09:22:17 81.23, -20.69 87.97 0.38 22
128 03/15/2022 10:13:24 -81.22, 146.69 92.07 03/15/2022 10:13:02 -81.22, 146.65 92.05 0.65 22
129 03/15/2022 11:04:10 81.22, -45.91 87.91 03/15/2022 11:03:47 81.23, -46.10 87.95 3.16 23
130 03/15/2022 11:54:56 -81.23, 121.10 92.07 03/15/2022 11:54:32 -81.23, 121.24 92.07 2.42 24
131 03/15/2022 12:45:42 81.23, -71.51 87.91 03/15/2022 12:45:17 81.23, -71.51 87.93 0.12 25
132 03/15/2022 13:36:27 -81.22, 95.89 92.12 03/15/2022 13:36:02 -81.23, 95.83 92.09 1.11 25
133 03/15/2022 14:27:14 81.23, -97.10 87.92 03/15/2022 14:26:47 81.23, -96.92 87.91 3.01 27
134 03/15/2022 15:17:59 -81.23, 70.30 92.12 03/15/2022 15:17:32 -81.23, 70.42 92.12 1.96 27
135 03/15/2022 16:08:45 81.23,-122.31 87.86 03/15/2022 16:08:17 81.23,-122.34 87.88 0.58 28
136 03/15/2022 16:59:30 -81.23, 45.09 92.17 03/15/2022 16:59:02 -81.23, 45.00 92.14 1.58 28
137 03/15/2022 17:50:16 81.22,-147.51 87.81 03/15/2022 17:49:46 81.22,-147.36 87.81 2.54 30
138 03/15/2022 18:41:01 -81.22, 19.89 92.22 03/15/2022 18:40:31 -81.22, 19.97 92.22 1.51 30
139 03/15/2022 19:31:47 81.22,-172.72 87.76 03/15/2022 19:31:16 81.22,-172.78 87.78 1.04 31
140 03/15/2022 20:22:33 -81.23, -5.70 92.22 03/15/2022 20:22:02 -81.23, -5.82 92.19 2.06 31
141 03/15/2022 21:13:19 81.22, 161.69 87.76 03/15/2022 21:12:46 81.22, 161.81 87.76 2.07 33
142 03/15/2022 22:04:04 -81.22, -30.91 92.27 03/15/2022 22:03:31 -81.22, -30.85 92.26 1.03 33
143 03/15/2022 22:54:50 81.22, 136.48 87.71 03/15/2022 22:54:16 81.22, 136.40 87.74 1.47 34
144 03/15/2022 23:45:35 -81.22, -56.11 92.33 03/15/2022 23:45:01 -81.22, -56.26 92.29 2.53 34
145 03/16/2022 00:36:22 81.23, 110.89 87.71 03/16/2022 00:35:46 81.22, 110.98 87.71 1.61 36
146 03/16/2022 01:27:07 -81.22, -81.71 92.33 03/16/2022 01:26:31 -81.22, -81.67 92.31 0.55 36
147 03/16/2022 02:17:53 81.22, 85.68 87.65 03/16/2022 02:17:16 81.22, 85.57 87.69 1.93 37
148 03/16/2022 03:08:38 -81.22,-106.91 92.38 03/16/2022 03:08:01 -81.22,-107.09 92.33 2.99 37
149 03/16/2022 03:59:25 81.23, 60.09 87.66 03/16/2022 03:58:46 81.23, 60.16 87.67 1.16 39
150 03/16/2022 04:50:10 -81.22,-132.50 92.38 03/16/2022 04:49:31 -81.23,-132.50 92.35 0.09 39
151 03/16/2022 05:40:56 81.22, 34.89 87.60 03/16/2022 05:40:16 81.23, 34.75 87.65 2.39 40
152 03/16/2022 06:31:42 -81.23,-158.10 92.38 03/16/2022 06:31:01 -81.23,-157.91 92.38 3.14 41
153 03/16/2022 07:22:28 81.23, 9.29 87.60 03/16/2022 07:21:46 81.23, 9.33 87.62 0.73 42
154 03/16/2022 08:13:13 -81.23, 176.70 92.43 03/16/2022 08:12:31 -81.23, 176.68 92.40 0.42 42
155 03/16/2022 09:03:59 81.22, -15.91 87.55 03/16/2022 09:03:16 81.23, -16.08 87.60 2.86 43
156 03/16/2022 09:54:44 -81.22, 151.49 92.48 03/16/2022 09:54:00 -81.22, 151.65 92.48 2.67 44
157 03/16/2022 10:45:30 81.22, -41.12 87.50 03/16/2022 10:44:45 81.22, -41.11 87.52 0.32 45
158 03/16/2022 11:36:16 -81.23, 125.90 92.48 03/16/2022 11:35:31 -81.23, 125.85 92.45 0.90 45
159 03/16/2022 12:27:02 81.22, -66.71 87.50 03/16/2022 12:26:15 81.22, -66.52 87.50 3.30 47
160 03/16/2022 13:17:47 -81.22, 100.69 92.53 03/16/2022 13:17:00 -81.22, 100.82 92.52 2.19 47
161 03/16/2022 14:08:33 81.22, -91.92 87.45 03/16/2022 14:07:45 81.22, -91.93 87.48 0.27 48
162 03/16/2022 14:59:18 -81.22, 75.49 92.58 03/16/2022 14:58:30 -81.22, 75.41 92.55 1.35 48
163 03/16/2022 15:50:05 81.23,-117.51 87.45 03/16/2022 15:49:15 81.22,-117.35 87.45 2.84 50
164 03/16/2022 16:40:50 -81.22, 49.90 92.58 03/16/2022 16:40:00 -81.22, 50.00 92.57 1.72 50
165 03/16/2022 17:31:36 81.22,-142.72 87.40 03/16/2022 17:30:45 81.22,-142.76 87.43 0.70 51
166 03/16/2022 18:22:21 -81.22, 24.69 92.64 03/16/2022 18:21:30 -81.22, 24.58 92.59 1.81 51
167 03/16/2022 19:13:08 81.23,-168.31 87.40 03/16/2022 19:12:15 81.22,-168.17 87.41 2.38 53
168 03/16/2022 20:03:53 -81.22, -0.90 92.64 03/16/2022 20:03:00 -81.22, -0.83 92.62 1.25 53
169 03/16/2022 20:54:39 81.22, 166.48 87.35 03/16/2022 20:53:45 81.23, 166.41 87.39 1.17 54
170 03/16/2022 21:45:24 -81.22, -26.11 92.69 03/16/2022 21:44:30 -81.22, -26.24 92.64 2.28 54
171 03/16/2022 22:36:10 81.22, 141.28 87.29 03/16/2022 22:35:14 81.22, 141.39 87.31 1.93 56
172 03/16/2022 23:26:56 -81.22, -51.70 92.69 03/16/2022 23:26:00 -81.23, -51.65 92.66 0.79 56
173 03/17/2022 00:17:42 81.22, 115.68 87.29 03/17/2022 00:16:45 81.23, 115.59 87.34 1.64 57
174 03/17/2022 01:08:27 -81.22, -76.90 92.74 03/17/2022 01:07:30 -81.23, -77.07 92.68 2.76 57
175 03/17/2022 01:59:13 81.22, 90.48 87.24 03/17/2022 01:58:14 81.22, 90.56 87.26 1.45 59
176 03/17/2022 02:49:57 -81.22,-102.11 92.79 03/17/2022 02:48:58 -81.22,-102.09 92.76 0.40 59
177 03/17/2022 03:40:43 81.22, 65.27 87.19 03/17/2022 03:39:43 81.22, 65.15 87.24 2.11 60
178 03/17/2022 04:31:29 -81.22,-127.70 92.79 03/17/2022 04:30:29 -81.23,-127.89 92.73 3.24 60
179 03/17/2022 05:22:15 81.22, 39.68 87.19 03/17/2022 05:21:13 81.22, 39.73 87.22 0.98 62
180 03/17/2022 06:13:00 -81.22,-152.91 92.84 03/17/2022 06:11:58 -81.22,-152.92 92.81 0.24 62
181 03/17/2022 07:03:46 81.22, 14.47 87.14 03/17/2022 07:02:43 81.22, 14.32 87.19 2.57 63
182 03/17/2022 07:54:32 -81.22,-178.50 92.84 03/17/2022 07:53:28 -81.22,-178.33 92.83 2.88 64
183 03/17/2022 08:45:18 81.22, -11.12 87.14 03/17/2022 08:44:13 81.22, -11.09 87.17 0.51 65
184 03/17/2022 09:36:03 -81.22, 156.29 92.90 03/17/2022 09:34:58 -81.22, 156.25 92.85 0.65 65
185 03/17/2022 10:26:49 81.22, -36.33 87.09 03/17/2022 10:25:43 81.22, -36.51 87.15 3.03 66
186 03/17/2022 11:17:35 -81.22, 130.70 92.89 03/17/2022 11:16:28 -81.22, 130.84 92.88 2.41 67
187 03/17/2022 12:08:21 81.22, -61.92 87.09 03/17/2022 12:07:13 81.22, -61.92 87.13 0.15 68
188 03/17/2022 12:59:06 -81.22, 105.49 92.95 03/17/2022 12:57:58 -81.22, 105.43 92.90 1.13 68
189 03/17/2022 13:49:52 81.22, -87.13 87.03 03/17/2022 13:48:42 81.22, -86.95 87.05 3.13 70
190 03/17/2022 14:40:38 -81.22, 79.90 92.95 03/17/2022 14:39:28 -81.22, 80.02 92.92 1.94 70
191 03/17/2022 15:31:24 81.22,-112.72 87.04 03/17/2022 15:30:13 81.23,-112.75 87.08 0.49 71
192 03/17/2022 16:22:09 -81.22, 54.70 93.00 03/17/2022 16:20:58 -81.23, 54.60 92.94 1.61 71
193 03/17/2022 17:12:55 81.22,-137.93 86.98 03/17/2022 17:11:42 81.22,-137.77 87.00 2.65 73
194 03/17/2022 18:03:40 -81.22, 29.49 93.05 03/17/2022 18:02:27 -81.22, 29.57 93.02 1.47 73
195 03/17/2022 18:54:26 81.22,-163.13 86.93 03/17/2022 18:53:12 81.22,-163.19 86.98 0.91 74
196 03/17/2022 19:45:12 -81.22, 3.90 93.05 03/17/2022 19:43:58 -81.23, 3.78 92.99 2.10 74



Historial Predications of SNOs between FY3D and NPP
